Regional Weather Roundup
Issued by NWS

Home | Current Version | Previous Version | Graphics & Text | Print | Product List | Glossary On
Versions: 1 2 3 4 5 6 7 8 9 10 11 12 13 14 15 16 17 18 19 20 21 22 23 24 25 26 27
000
ASUS45 KBOU 270307
RWRCO

WEATHER ROUNDUP FOR COLORADO
NATIONAL WEATHER SERVICE DENVER/BOULDER CO
900 PM MDT THU MAY 26 2016

NOTE: "FAIR" INDICATES FEW OR NO CLOUDS BELOW 12000 FEET WITH NO
SIGNIFICANT WEATHER AND/OR OBSTRUCTIONS TO VISIBILITY.

COZ001>005-013-030-031-270400-
...NORTHWEST COLORADO...

CITY           SKY/WX    TMP DP  RH WIND       PRES   REMARKS
CRAIG          MOCLDY    49  40  71 SE6       29.95R
HAYDEN         MOCLDY    48  34  57 NW20G25   29.96S
MEEKER         CLOUDY    51  35  54 SE9       29.95R
MOUNT WERNER   NOT AVBL
STEAMBOAT SPGS CLOUDY    49  35  58 E10       29.98R
WALDEN         FAIR      41  32  70 CALM      30.02S
$$

COZ006>008-011-270400-
...WEST CENTRAL VALLEYS...

CITY           SKY/WX    TMP DP  RH WIND       PRES   REMARKS
GRAND JUNCTION MOCLDY    58  35  42 W13G28    29.91R
MONTROSE       LGT RAIN  55  36  48 W14G21    29.95R
EAGLE          CLOUDY    45  43  93 S7        30.04F
RIFLE          MOCLDY    56  36  47 E8        29.92R
DELTA          CLOUDY    61  35  37 SW10G17   29.91R
NUCLA          FAIR      54  32  43 NW3       29.99R
$$

COZ017>023-064>068-270400-
...SOUTHWEST COLORADO...

CITY           SKY/WX    TMP DP  RH WIND       PRES   REMARKS
DURANGO        MOCLDY    52  27  38 W12       29.94R
CORTEZ         FAIR      47  34  60 E3        29.96R
PAGOSA SPRINGS FAIR      47  28  47 NE5       29.97S
TELLURIDE      MOCLDY    39  35  86 SE3       30.07
WOLF CREEK PAS   N/A     27  23  86 NE5       30.13F WCI  21
$$

COZ009-010-012-014-032>034-037-058>063-270400-
...CENTRAL COLORADO...

CITY           SKY/WX    TMP DP  RH WIND       PRES   REMARKS
ASPEN          CLOUDY    46  33  60 N3        30.00R
BUENA VISTA    LGT RAIN  42  37  84 CALM      30.01R
COPPER MTN     NOT AVBL
BERTHOUD PASS  HAZE      25  16  68 N7        30.12F VSB<1/4 WCI  17
COTTONWOOD PAS LGT SNOW  36  34  93 CALM      30.05S
GUNNISON       CLOUDY    45  34  65 N12G22    30.00S
KREMMLING      FAIR      46  32  57 W13       29.98F
LEADVILLE      LGT SNOW  32  30  92 N10       30.05R FOG     WCI  24
MONARCH PASS   SNOW      28  27  93 W10       30.20S VSB 1/4 WCI  19
SALIDA         CLOUDY    43  40  88 CALM      30.07S
SUNLIGHT       CLOUDY    34  32  93 NE6       30.15R WCI  29
WILKERSON PASS SNOW      30  28  93 N9G16     30.11R VSB 1/2 WCI  22
$$

COZ069>075-270400-
...SAN LUIS VALLEY/SANGRE DE CRISTO MOUNTAINS...

CITY           SKY/WX    TMP DP  RH WIND       PRES   REMARKS
ALAMOSA        FAIR      45  35  68 SE5       29.96S
LA VETA PASS   CLOUDY    34  32  93 SW3       30.03S
SAGUACHE       CLOUDY    46  30  53 NW15      29.98S
$$

COZ035-036-038>040-270400-
...NORTHERN COLORADO FRONT RANGE...

CITY           SKY/WX    TMP DP  RH WIND       PRES   REMARKS
DENVER INTL AP LGT RAIN  45  43  93 SE9       29.92F
DMNS CITY PARK   N/A     48  46  95 E12       29.92F
AURORA         LGT RAIN  45  45  99 E5        29.94S
FRONT RANGE AP LGT RAIN  45  43  93 SE7       29.95S
ERIE MUNI ARPT CLOUDY    50  45  82 SE6       29.92S
BOULDER MUN AP FAIR      50  45  81 CALM      29.91R
CENTENNIAL     LGT RAIN  46  42  86 NE3       29.94S
BROOMFIELD     CLOUDY    48  45  87 E6        29.93S
FORT COLLINS   FAIR      48  43  81 CALM      29.92S
LONGMONT       FAIR      51  46  82 CALM      29.93S
$$

COZ041-046-047-076>085-087-088-270400-
...PIKES PEAK/PALMER DIVIDE AND SOUTHERN FOOTHILLS...

CITY           SKY/WX    TMP DP  RH WIND       PRES   REMARKS
COLO. SPRINGS  MOCLDY    44  41  89 NW10      29.94R
A. F. ACADEMY  MOCLDY    43  39  87 N7        29.93F
SCHRIEVER AFB  NOT AVBL
ELLICOTT       MOCLDY   N/A N/A N/A N20G30    29.89R
FALCON         FAIR      38  36  92 NW8       29.94R
FORT CARSON    MOCLDY    46  41  83 N18       29.90R
LIMON          MOCLDY    40  38  93 N17       29.83F
MONUMENT HILL  RAIN      36  36 100 NW3       29.95F
TRINIDAD       MOCLDY    52  38  58 N7        29.88R
$$

COZ042>045-048>051-090-091-270400-
...NORTHEAST COLORADO...

CITY           SKY/WX    TMP DP  RH WIND       PRES   REMARKS
GREELEY ARPT   FAIR      50  46  87 S5        29.90F
AKRON          RAIN      48  45  89 SW17      29.91R
BURLINGTON     FAIR      49  40  71 NW33G44   29.74F
WRAY           NOT AVBL
STERLING       LGT RAIN  54  46  76 NW10G16   29.86R
HOLYOKE        NOT AVBL
FORT MORGAN    RAIN      49  46  90 W6        29.91S
$$

COZ086-089-092>099-270400-
...SOUTHEAST COLORADO...

CITY           SKY/WX    TMP DP  RH WIND       PRES   REMARKS
PUEBLO         FAIR      53  39  59 N20G29    29.84R
LA JUNTA       FAIR      52  44  74 N16       29.82R
LAMAR          FAIR      55  43  63 NW21      29.78R
SPRINGFIELD      N/A     53  42  66 NW10      29.76R
$$




USA.gov is the U.S. government's official web portal to all federal, state and local government web resources and services.